Wind_Speed
27 28 24 25 27 28 30 31 31 31 32 34 35 39 39 38 45 45 45 45 43 41 40 39 39 39 34 31 30 32 36 36 34 34 36 33 35 33 31 30 30 32 33
27 26 29 27 28 29 28 30 34 36 36 39 39 39 45 45 44 49 50 50 51 49 47 44 47 47 42 48 47 40 41 41 38 34 37 35 32 28 27 25 24 27 30
21 22 22 27 29 31 29 28 30 34 38 41 43 44 45 51 48 45 49 51 52 51 51 53 52 48 55 53 30 38 33 35 34 40 37 33 26 19 20 19 22 22 24
16 18 21 23 26 28 29 29 30 36 36 40 45 44 40 37 44 44 49 50 49 47 47 52 51 50 49 51 35 41 42 41 36 33 33 35 24 21 20 19 21 22 26
23 24 29 31 35 37 37 37 38 35 34 39 40 44 42 35 38 41 46 50 47 46 49 47 40 42 50 45 32 34 35 44 37 36 33 32 24 20 21 21 22 27 29
25 19 24 29 33 34 33 35 35 35 32 31 39 39 41 38 39 41 45 47 49 49 47 42 35 37 48 52 34 34 40 43 41 33 31 25 21 20 21 27 26 28 27
13 14 19 24 29 30 33 33 33 37 32 33 31 36 37 40 41 41 44 47 48 48 48 40 31 35 43 56 46 38 36 37 24 27 27 23 22 20 24 28 31 33 34
16 19 25 29 32 34 33 27 26 24 24 22 22 28 36 37 41 40 43 45 44 41 35 31 31 34 41 53 58 25 34 23 25 26 25 22 22 23 24 27 32 35 36
27 26 23 24 25 30 35 30 23 20 21 18 16 17 23 25 29 34 32 27 28 29 29 29 30 32 36 38 21 18 20 28 28 25 21 21 22 24 26 30 34 38 40
35 35 35 34 35 28 32 31 30 23 16 15 16 12 11 14 18 23 25 28 31 31 32 30 34 34 33 41 20 18 24 25 24 23 21 22 25 26 29 32 35 37 37
42 44 37 38 40 37 33 31 27 25 19 14 17 21 18 17 15 13 12 16 24 28 26 28 25 28 34 26 24 21 26 24 24 22 21 24 26 28 30 32 32 34 37
40 47 49 48 43 40 39 30 26 23 20 15 17 9 14 19 29 26 23 21 20 19 19 14 14 15 20 20 18 24 24 23 22 22 23 24 27 28 31 34 33 33 36
26 29 31 31 36 35 33 26 26 22 21 18 23 27 26 22 19 25 31 34 28 26 26 18 17 19 19 14 19 23 22 22 22 22 25 27 28 30 32 34 34 32 36
22 28 32 32 29 30 29 29 25 23 20 21 19 26 29 27 26 27 23 28 31 28 29 24 24 22 18 18 21 20 20 23 26 27 27 31 34 33 33 35 33 34 36
20 24 25 27 26 26 27 24 25 24 22 19 21 26 22 27 26 26 25 25 23 23 22 22 19 19 20 26 31 32 29 33 33 37 44 45 46 45 38 37 35 37 37
20 23 24 25 25 26 28 24 21 23 20 18 18 24 29 17 30 31 25 27 28 22 16 16 13 11 17 25 26 30 36 42 48 54 42 33 36 40 41 39 39 39 39
20 24 27 29 27 28 28 24 23 19 20 17 18 19 26 24 26 20 25 21 22 21 22 21 24 32 38 35 35 32 25 25 29 34 41 45 44 41 38 39 38 39 42
22 26 28 30 27 28 28 25 24 17 16 17 19 25 28 26 25 29 20 21 22 23 18 17 21 23 23 21 20 21 24 29 33 34 33 36 39 41 41 40 41 42 43
23 27 32 29 29 28 29 27 21 19 16 14 22 28 27 28 28 31 27 22 22 21 23 26 24 24 24 22 21 25 28 31 33 33 35 38 41 43 44 45 45 46 47
25 31 30 30 30 30 29 29 22 18 17 16 22 28 28 26 26 25 25 25 23 25 20 19 18 17 18 21 25 28 29 31 32 35 37 39 42 44 45 48 50 52 52
27 33 30 30 29 31 30 30 18 16 13 17 20 25 22 20 21 21 17 18 19 15 11 11 14 17 20 23 25 27 29 31 34 36 38 41 44 46 49 50 52 52 54
26 31 31 30 27 29 31 25 15 14 14 17 16 17 16 16 15 15 11 9 7 11 13 14 16 19 22 25 28 30 32 35 36 37 38 40 41 44 45 46 47 48 49
26 29 29 28 26 27 28 18 14 13 14 11 11 13 11 8 7 5 7 12 12 12 15 17 19 22 23 25 27 29 31 34 35 37 39 41 42 41 40 40 41 42 43
25 26 26 27 25 26 19 16 12 8 8 9 8 9 7 4 9 10 8 8 10 11 14 17 19 21 23 25 27 29 31 33 34 35 36 37 37 37 38 37 37 36 36
27 23 23 23 24 22 13 11 5 8 7 7 7 5 7 9 7 5 7 8 10 11 14 17 19 22 25 28 31 32 32 34 35 36 38 37 36 35 33 30 30 29 28
22 20 21 21 21 15 9 9 9 9 8 5 7 11 10 4 4 6 8 10 12 15 17 21 24 26 27 28 29 31 34 35 35 35 34 31 29 28 25 23 21 21 21
Wind_Direction
295 289 284 275 267 261 262 264 264 264 266 265 263 255 255 255 248 247 249 248 248 248 250 250 245 245 247 247 257 267 264 258 257 260 264 265 263 264 270 268 265 261 273
297 293 288 280 274 270 266 262 262 265 265 266 266 262 257 254 254 248 246 249 252 254 255 254 251 247 247 250 253 255 268 259 259 264 270 268 265 270 269 265 266 267 272
300 294 290 287 285 284 284 278 272 268 267 269 269 269 274 253 251 254 250 250 252 252 254 257 258 248 244 250 274 242 258 261 260 253 260 261 264 260 260 261 264 270 284
291 291 288 286 284 280 282 283 283 283 274 267 268 271 275 257 248 254 248 248 251 254 258 263 263 258 249 246 272 244 251 259 254 242 249 251 252 252 260 272 282 281 286
310 301 301 294 288 290 293 292 293 294 291 270 268 262 265 257 253 253 250 246 249 255 261 265 262 251 246 240 248 244 235 241 248 247 245 246 244 252 266 271 282 288 291
313 302 288 290 292 291 290 292 293 295 293 286 269 264 259 256 253 253 251 250 249 255 259 266 262 241 234 234 238 234 244 245 232 232 240 243 250 262 273 285 295 297 300
310 314 313 312 303 300 295 295 302 300 287 279 272 258 254 254 251 250 251 252 253 253 257 260 244 237 226 229 232 226 247 241 232 232 240 245 258 269 279 285 296 302 307
306 311 317 316 308 308 308 306 293 294 287 289 273 254 246 251 254 255 252 252 257 263 262 257 259 252 234 226 238 226 237 229 234 230 237 250 263 275 284 297 302 304 306
303 311 308 304 312 317 322 319 306 291 289 286 291 273 261 264 267 264 266 264 263 262 262 256 253 243 246 243 255 218 231 235 234 235 245 259 273 282 294 303 308 307 308
297 301 302 301 309 314 318 322 324 308 297 292 285 299 292 276 268 264 258 257 256 255 254 252 247 241 249 267 245 253 244 237 240 246 252 263 274 287 297 306 310 307 303
298 298 300 300 304 306 310 313 316 318 311 295 297 290 278 276 296 297 286 271 260 261 256 255 248 257 253 240 236 237 245 248 251 256 261 270 283 292 299 304 308 306 300
307 303 302 299 302 302 301 299 309 308 318 309 301 309 290 292 269 280 290 291 285 272 252 245 239 226 215 226 236 242 254 258 260 263 271 281 290 297 300 303 304 300 298
312 314 302 298 296 299 297 290 288 298 301 301 294 303 313 304 312 282 284 280 278 271 253 227 221 226 223 231 240 249 251 257 266 277 284 291 298 300 302 301 300 296 293
309 322 311 311 307 303 298 294 277 282 282 283 300 309 315 291 276 279 281 281 275 242 240 226 215 214 217 230 236 253 262 268 277 287 294 299 303 300 301 299 297 294 292
316 326 316 313 317 311 307 303 278 277 278 273 278 284 290 303 272 271 272 269 243 218 211 200 194 212 223 242 253 267 271 275 284 293 290 289 296 300 302 297 293 292 288
320 319 315 321 323 326 324 320 298 276 275 277 277 279 284 327 321 289 256 260 262 218 218 234 237 255 261 265 266 274 284 284 278 275 281 295 293 292 290 293 294 293 292
321 320 312 322 324 327 331 327 317 286 271 266 288 284 280 315 308 261 276 240 233 233 260 272 284 285 269 271 280 284 280 279 286 294 297 292 289 286 290 291 292 291 291
319 319 316 313 319 324 330 332 323 307 279 270 278 275 274 282 280 286 269 258 261 257 257 266 270 278 278 275 272 277 280 286 290 290 291 289 289 293 293 293 293 292 292
317 315 319 317 316 321 330 328 316 320 310 289 290 276 267 274 277 285 270 268 277 266 272 275 276 282 280 277 289 294 293 292 294 297 296 296 296 296 295 296 294 292 290
310 308 316 315 315 321 323 328 313 304 317 316 292 276 272 273 269 271 276 280 278 267 286 288 281 279 286 292 293 294 297 297 298 298 297 298 297 297 297 295 295 293 292
304 303 308 313 311 323 324 327 302 299 320 323 292 281 278 283 289 291 290 283 274 277 284 300 316 315 310 303 301 301 301 301 300 301 301 301 300 300 299 297 296 294 293
296 295 296 306 307 322 325 326 304 309 317 306 284 275 280 280 278 271 271 275 308 355 344 323 316 311 310 311 310 308 307 307 307 306 305 304 303 303 302 301 300 299 298
294 292 295 298 305 320 320 326 328 325 312 278 272 268 253 244 243 266 22 16 4 334 326 324 318 318 317 313 311 314 315 314 316 317 316 314 311 310 310 309 307 305 302
286 295 294 295 305 315 318 326 335 314 276 265 258 250 230 97 48 33 6 339 332 327 325 325 323 318 318 320 321 322 324 327 324 323 323 326 328 327 326 323 320 317 314
284 295 293 296 306 312 311 312 290 265 256 246 229 185 85 64 43 4 332 336 340 339 338 329 329 332 333 335 334 339 341 342 342 341 339 337 334 332 331 330 327 326 326
280 288 291 302 306 308 298 264 257 263 242 179 106 74 54 25 18 12 3 353 349 352 348 348 348 348 348 352 355 355 353 349 346 344 342 341 343 345 348 350 348 342 340
Height
3122 3119 3119 3119 3118 3117 3117 3117 3117 3116 3114 3113 3112 3111 3110 3112 3111 3112 3115 3114 3116 3117 3118 3118 3119 3121 3121 3122 3121 3124 3125 3124 3124 3123 3123 3124 3123 3123 3124 3124 3124 3124 3123
3115 3114 3111 3110 3110 3109 3108 3107 3107 3106 3105 3103 3102 3101 3101 3100 3100 3101 3102 3103 3104 3107 3109 3110 3110 3111 3113 3114 3114 3115 3117 3117 3116 3117 3117 3116 3116 3115 3115 3116 3116 3116 3115
3106 3105 3105 3102 3101 3100 3100 3099 3099 3097 3095 3092 3090 3089 3088 3085 3087 3090 3091 3092 3092 3095 3097 3099 3099 3101 3099 3104 3103 3106 3106 3107 3108 3110 3108 3108 3108 3108 3109 3110 3110 3109 3108
3103 3100 3098 3096 3093 3091 3090 3090 3089 3087 3085 3082 3079 3078 3077 3075 3079 3078 3078 3079 3079 3082 3085 3087 3089 3091 3092 3093 3094 3094 3095 3097 3100 3100 3100 3101 3102 3101 3102 3102 3102 3101 3100
3098 3096 3093 3090 3086 3083 3081 3079 3078 3077 3074 3072 3070 3068 3068 3069 3068 3066 3065 3066 3068 3071 3072 3072 3074 3076 3078 3083 3083 3082 3084 3087 3090 3091 3094 3095 3093 3095 3094 3095 3097 3094 3091
3092 3088 3086 3083 3080 3078 3075 3071 3069 3067 3064 3061 3059 3058 3057 3058 3057 3056 3055 3055 3057 3058 3060 3061 3061 3062 3069 3073 3076 3075 3075 3075 3071 3082 3085 3087 3086 3087 3085 3084 3084 3083 3083
3088 3084 3080 3077 3074 3070 3066 3064 3061 3058 3055 3052 3049 3047 3047 3047 3047 3046 3045 3044 3044 3048 3051 3051 3050 3052 3054 3061 3059 3060 3067 3063 3063 3074 3078 3078 3078 3075 3076 3075 3071 3065 3064
3084 3080 3076 3073 3069 3064 3060 3057 3054 3052 3048 3044 3039 3037 3037 3038 3038 3037 3035 3035 3037 3040 3044 3044 3046 3049 3046 3043 3024 3042 3047 3055 3063 3067 3069 3069 3070 3069 3066 3063 3059 3054 3051
3078 3074 3072 3068 3065 3060 3054 3049 3046 3043 3042 3038 3034 3030 3029 3029 3029 3030 3030 3030 3030 3031 3033 3035 3038 3039 3041 3029 3030 3038 3048 3055 3057 3060 3060 3060 3060 3060 3057 3053 3049 3045 3039
3072 3069 3065 3061 3059 3056 3052 3046 3042 3037 3034 3032 3029 3027 3024 3024 3022 3023 3021 3022 3023 3024 3027 3029 3029 3031 3035 3030 3038 3040 3050 3052 3051 3052 3050 3049 3049 3049 3047 3045 3039 3036 3030
3064 3061 3058 3055 3051 3049 3047 3042 3038 3034 3030 3026 3024 3023 3020 3020 3019 3018 3017 3016 3016 3018 3019 3021 3024 3023 3025 3030 3035 3038 3046 3044 3044 3042 3040 3040 3038 3039 3037 3034 3029 3026 3023
3057 3054 3051 3047 3043 3040 3038 3036 3033 3031 3027 3022 3019 3018 3016 3014 3015 3015 3013 3015 3014 3013 3013 3014 3016 3016 3017 3021 3027 3032 3033 3036 3036 3034 3032 3029 3029 3029 3028 3024 3018 3017 3014
3051 3048 3044 3039 3034 3030 3028 3028 3026 3024 3022 3020 3015 3012 3003 3011 3009 3007 3007 3011 3008 3008 3009 3009 3009 3010 3009 3016 3021 3029 3029 3029 3027 3025 3022 3021 3020 3020 3016 3012 3009 3007 3004
3046 3042 3038 3033 3029 3025 3021 3018 3017 3016 3015 3014 3012 3011 3006 3004 3003 3003 3001 3000 2998 2996 2998 2998 2997 3003 3005 3012 3017 3020 3017 3016 3015 3014 3014 3013 3013 3009 3004 3002 3000 2998 2993
3041 3036 3032 3027 3023 3018 3014 3011 3009 3008 3008 3007 3007 3006 3000 2998 2993 2995 2994 2992 2991 2990 2991 2992 2991 2997 2999 3006 3009 3010 3007 3006 3006 3007 3005 3002 3001 2998 2992 2992 2991 2987 2985
3035 3031 3026 3022 3018 3013 3008 3005 3002 3000 3000 2999 2999 2998 2996 2992 2994 2989 2987 2985 2985 2986 2988 2989 2988 2990 2995 2999 3000 3000 2999 2999 2998 2997 2996 2991 2988 2984 2986 2983 2979 2976 2973
3030 3026 3022 3018 3014 3009 3004 3000 2996 2994 2993 2992 2991 2991 2990 2987 2985 2983 2981 2980 2979 2981 2983 2982 2981 2985 2988 2990 2990 2988 2989 2989 2988 2985 2981 2979 2978 2976 2972 2969 2965 2963 2961
3026 3023 3019 3015 3011 3006 3001 2997 2993 2989 2988 2987 2987 2986 2987 2985 2981 2979 2978 2975 2974 2975 2976 2977 2978 2978 2978 2979 2981 2981 2979 2979 2977 2973 2971 2971 2967 2961 2958 2957 2955 2951 2948
3022 3018 3014 3010 3006 3002 2998 2993 2990 2986 2984 2983 2983 2982 2981 2980 2980 2976 2974 2973 2972 2973 2973 2973 2974 2974 2973 2973 2973 2974 2972 2971 2968 2964 2960 2956 2953 2951 2948 2943 2940 2937 2936
3017 3013 3010 3005 3002 2999 2994 2989 2986 2983 2981 2979 2980 2980 2979 2978 2976 2975 2974 2971 2971 2971 2971 2970 2970 2969 2969 2969 2969 2968 2966 2963 2961 2956 2951 2946 2943 2939 2934 2930 2925 2922 2919
3012 3007 3005 3001 2998 2994 2990 2985 2981 2979 2977 2976 2976 2976 2976 2975 2974 2972 2970 2969 2968 2967 2967 2968 2967 2967 2966 2964 2963 2961 2958 2954 2950 2946 2942 2937 2933 2927 2921 2916 2911 2906 2901
3004 3002 2999 2997 2994 2991 2985 2980 2977 2975 2974 2973 2973 2973 2973 2972 2970 2969 2969 2968 2967 2965 2967 2965 2964 2963 2960 2957 2955 2952 2948 2944 2939 2936 2930 2925 2920 2915 2909 2904 2897 2891 2885
2997 2995 2994 2992 2990 2987 2982 2977 2975 2973 2972 2971 2970 2970 2969 2969 2968 2968 2966 2966 2966 2965 2964 2962 2960 2958 2955 2953 2950 2945 2940 2935 2930 2924 2918 2913 2907 2902 2897 2892 2885 2878 2872
2992 2990 2989 2987 2986 2982 2979 2976 2973 2972 2972 2971 2970 2969 2968 2966 2966 2967 2968 2967 2965 2964 2962 2959 2956 2954 2952 2948 2943 2938 2932 2927 2922 2917 2911 2903 2897 2890 2884 2878 2872 2866 2859
2987 2986 2985 2983 2981 2978 2976 2974 2972 2972 2972 2971 2969 2968 2967 2968 2968 2968 2967 2965 2963 2962 2959 2956 2953 2949 2945 2939 2933 2929 2925 2919 2912 2907 2900 2894 2889 2883 2878 2872 2864 2858 2853
2982 2982 2980 2979 2977 2975 2974 2973 2972 2972 2972 2970 2968 2968 2969 2970 2969 2967 2966 2964 2962 2959 2955 2950 2947 2944 2940 2936 2930 2924 2918 2913 2908 2901 2897 2891 2885 2879 2874 2869 2863 2857 2852